Time,TemperatureF,DewpointF,PressureIn,WindDirection,WindDirectionDegrees,WindSpeedMPH,WindSpeedGustMPH,Humidity,HourlyPrecipIn,Conditions,Clouds,dailyrainin,SolarRadiationWatts/m^2,SoftwareType,DateUTC
2013-01-11 00:09:00,49.8,49.0,29.73,South,171,0.0,5.0,96,0.00,,,0.48,0,weatherlink.com 1.10,2013-01-11 06:09:00,
2013-01-11 00:24:00,50.1,49.0,29.73,South,190,2.0,6.0,96,0.00,,,0.48,0,weatherlink.com 1.10,2013-01-11 06:24:00,
2013-01-11 00:39:00,50.3,49.0,29.75,South,190,3.0,7.0,96,0.00,,,0.48,0,weatherlink.com 1.10,2013-01-11 06:39:00,
2013-01-11 00:54:00,50.4,49.0,29.75,South,169,1.0,6.0,96,0.00,,,0.48,0,weatherlink.com 1.10,2013-01-11 06:54:00,
2013-01-11 01:09:00,50.5,49.0,29.75,SSW,211,2.0,11.0,96,0.00,,,0.48,0,weatherlink.com 1.10,2013-01-11 07:09:00,
2013-01-11 01:24:00,50.6,50.0,29.73,South,186,2.0,10.0,96,0.00,,,0.48,0,weatherlink.com 1.10,2013-01-11 07:24:00,
2013-01-11 01:39:00,50.6,50.0,29.73,SW,233,2.0,7.0,96,0.00,,,0.48,0,weatherlink.com 1.10,2013-01-11 07:39:00,
2013-01-11 01:54:00,50.6,50.0,29.72,South,178,2.0,4.0,96,0.00,,,0.48,0,weatherlink.com 1.10,2013-01-11 07:54:00,
2013-01-11 02:09:00,50.5,49.0,29.72,South,171,2.0,8.0,96,0.00,,,0.48,0,weatherlink.com 1.10,2013-01-11 08:09:00,
2013-01-11 02:24:00,50.5,49.0,29.73,South,173,6.0,9.0,96,0.00,,,0.48,0,weatherlink.com 1.10,2013-01-11 08:24:00,
2013-01-11 02:39:00,50.5,49.0,29.73,SW,231,5.0,9.0,96,0.00,,,0.48,0,weatherlink.com 1.10,2013-01-11 08:39:00,
2013-01-11 02:54:00,50.6,50.0,29.73,WSW,258,3.0,9.0,96,0.00,,,0.48,0,weatherlink.com 1.10,2013-01-11 08:54:00,
2013-01-11 03:09:00,50.6,50.0,29.73,SSE,150,4.0,8.0,96,0.00,,,0.48,0,weatherlink.com 1.10,2013-01-11 09:09:00,
2013-01-11 03:24:00,50.6,50.0,29.72,SE,127,2.0,9.0,96,0.00,,,0.48,0,weatherlink.com 1.10,2013-01-11 09:24:00,
2013-01-11 03:39:00,50.6,50.0,29.72,WSW,242,3.0,8.0,96,0.00,,,0.48,0,weatherlink.com 1.10,2013-01-11 09:39:00,
2013-01-11 03:54:00,50.5,49.0,29.72,SW,230,7.0,9.0,95,0.00,,,0.48,0,weatherlink.com 1.10,2013-01-11 09:54:00,
2013-01-11 04:09:00,50.4,49.0,29.71,SSW,207,2.0,12.0,95,0.00,,,0.48,0,weatherlink.com 1.10,2013-01-11 10:09:00,
2013-01-11 04:24:00,50.3,49.0,29.70,SSW,207,2.0,8.0,95,0.00,,,0.48,0,weatherlink.com 1.10,2013-01-11 10:24:00,
2013-01-11 04:39:00,50.3,49.0,29.71,South,187,3.0,9.0,94,0.00,,,0.48,0,weatherlink.com 1.10,2013-01-11 10:39:00,
2013-01-11 04:54:00,50.3,49.0,29.70,SW,234,5.0,8.0,94,0.00,,,0.48,0,weatherlink.com 1.10,2013-01-11 10:54:00,
2013-01-11 05:09:00,50.3,48.0,29.69,SSE,152,6.0,10.0,93,0.00,,,0.48,0,weatherlink.com 1.10,2013-01-11 11:09:00,
2013-01-11 05:24:00,50.3,48.0,29.69,SSW,208,1.0,7.0,92,0.00,,,0.48,0,weatherlink.com 1.10,2013-01-11 11:24:00,
2013-01-11 05:39:00,50.2,48.0,29.69,SSE,164,3.0,5.0,92,0.00,,,0.48,0,weatherlink.com 1.10,2013-01-11 11:39:00,
2013-01-11 05:54:00,50.2,48.0,29.68,East,80,3.0,7.0,92,0.00,,,0.48,0,weatherlink.com 1.10,2013-01-11 11:54:00,
2013-01-11 06:09:00,50.3,48.0,29.69,SSW,203,2.0,9.0,92,0.00,,,0.48,0,weatherlink.com 1.10,2013-01-11 12:09:00,
2013-01-11 06:26:00,50.4,48.0,29.69,South,173,3.0,9.0,92,0.00,,,0.48,0,weatherlink.com 1.10,2013-01-11 12:26:00,
2013-01-11 06:39:00,50.5,48.0,29.68,SW,215,0.0,8.0,91,0.00,,,0.48,0,weatherlink.com 1.10,2013-01-11 12:39:00,
2013-01-11 06:54:00,50.4,48.0,29.67,SSE,165,2.0,4.0,91,0.00,,,0.48,0,weatherlink.com 1.10,2013-01-11 12:54:00,
2013-01-11 07:09:00,50.4,48.0,29.66,ENE,59,1.0,9.0,91,0.00,,,0.48,0,weatherlink.com 1.10,2013-01-11 13:09:00,
2013-01-11 07:24:00,50.3,48.0,29.66,East,84,11.0,11.0,90,0.00,,,0.48,0,weatherlink.com 1.10,2013-01-11 13:24:00,
2013-01-11 07:39:00,50.1,47.0,29.66,SSE,160,3.0,8.0,90,0.00,,,0.48,0,weatherlink.com 1.10,2013-01-11 13:39:00,
2013-01-11 07:54:00,50.0,47.0,29.66,WSW,238,3.0,10.0,90,0.00,,,0.48,0,weatherlink.com 1.10,2013-01-11 13:54:00,
2013-01-11 08:09:00,49.8,47.0,29.66,South,169,5.0,9.0,90,0.00,,,0.48,19,weatherlink.com 1.10,2013-01-11 14:09:00,
2013-01-11 08:24:00,49.6,47.0,29.66,WSW,248,3.0,10.0,90,0.00,,,0.48,30,weatherlink.com 1.10,2013-01-11 14:24:00,
2013-01-11 08:39:00,49.6,47.0,29.67,South,182,5.0,13.0,89,0.00,,,0.48,47,weatherlink.com 1.10,2013-01-11 14:39:00,
2013-01-11 08:54:00,49.6,47.0,29.68,SE,144,6.0,13.0,89,0.00,,,0.00,47,weatherlink.com 1.10,2013-01-11 14:54:00,
2013-01-11 09:09:00,49.6,46.0,29.66,NE,53,3.0,11.0,88,0.00,,,0.00,79,weatherlink.com 1.10,2013-01-11 15:09:00,
2013-01-11 09:24:00,49.6,46.0,29.65,East,82,1.0,12.0,88,0.00,,,0.00,102,weatherlink.com 1.10,2013-01-11 15:24:00,
2013-01-11 09:39:00,50.0,46.0,29.67,SW,230,6.0,10.0,87,0.00,,,0.00,132,weatherlink.com 1.10,2013-01-11 15:39:00,
2013-01-11 09:54:00,50.8,46.0,29.66,South,177,4.0,11.0,84,0.00,,,0.00,98,weatherlink.com 1.10,2013-01-11 15:54:00,
2013-01-11 10:09:00,51.0,46.0,29.65,WSW,237,7.0,12.0,83,0.00,,,0.00,107,weatherlink.com 1.10,2013-01-11 16:09:00,
2013-01-11 10:24:00,51.6,46.0,29.64,SSW,199,7.0,13.0,82,0.00,,,0.00,156,weatherlink.com 1.10,2013-01-11 16:24:00,
2013-01-11 10:39:00,52.1,46.0,29.63,South,169,7.0,16.0,81,0.00,,,0.00,156,weatherlink.com 1.10,2013-01-11 16:39:00,
2013-01-11 10:54:00,52.6,46.0,29.63,West,259,4.0,18.0,79,0.00,,,0.00,139,weatherlink.com 1.10,2013-01-11 16:54:00,
2013-01-11 11:09:00,53.3,47.0,29.63,SSW,213,7.0,18.0,78,0.00,,,0.00,169,weatherlink.com 1.10,2013-01-11 17:09:00,
2013-01-11 11:24:00,53.6,47.0,29.62,West,275,9.0,21.0,77,0.00,,,0.00,236,weatherlink.com 1.10,2013-01-11 17:24:00,
2013-01-11 11:55:00,55.1,47.0,29.60,WNW,286,10.0,18.0,74,0.00,,,0.00,246,weatherlink.com 1.10,2013-01-11 17:55:00,
2013-01-11 12:10:00,56.1,48.0,29.60,SSE,149,8.0,25.0,73,0.01,,,0.01,283,weatherlink.com 1.10,2013-01-11 18:10:00,
2013-01-11 12:25:00,56.2,47.0,29.59,SSE,160,6.0,15.0,71,0.01,,,0.01,214,weatherlink.com 1.10,2013-01-11 18:25:00,
2013-01-11 12:40:00,56.5,47.0,29.60,South,172,9.0,20.0,70,0.01,,,0.01,220,weatherlink.com 1.10,2013-01-11 18:40:00,
2013-01-11 12:55:00,56.8,47.0,29.58,SSW,203,7.0,18.0,70,0.01,,,0.01,308,weatherlink.com 1.10,2013-01-11 18:55:00,
2013-01-11 13:10:00,56.5,46.0,29.59,South,185,6.0,14.0,69,0.00,,,0.01,120,weatherlink.com 1.10,2013-01-11 19:10:00,
2013-01-11 13:25:00,56.2,47.0,29.57,West,269,3.0,15.0,70,0.00,,,0.01,90,weatherlink.com 1.10,2013-01-11 19:25:00,
2013-01-11 13:40:00,56.1,47.0,29.58,WSW,240,2.0,9.0,71,0.00,,,0.01,88,weatherlink.com 1.10,2013-01-11 19:40:00,
2013-01-11 13:55:00,56.2,47.0,29.57,South,169,3.0,6.0,71,0.00,,,0.01,67,weatherlink.com 1.10,2013-01-11 19:55:00,
2013-01-11 14:10:00,56.7,47.0,29.58,SSE,165,4.0,10.0,70,0.00,,,0.01,53,weatherlink.com 1.10,2013-01-11 20:10:00,
2013-01-11 14:25:00,57.3,47.0,29.57,WSW,253,2.0,11.0,68,0.00,,,0.01,65,weatherlink.com 1.10,2013-01-11 20:25:00,
2013-01-11 14:40:00,57.6,47.0,29.57,WSW,250,1.0,12.0,68,0.00,,,0.01,42,weatherlink.com 1.10,2013-01-11 20:40:00,
2013-01-11 14:55:00,57.7,47.0,29.57,ESE,111,4.0,9.0,68,0.00,,,0.01,37,weatherlink.com 1.10,2013-01-11 20:55:00,
2013-01-11 15:10:00,57.8,48.0,29.57,SSE,165,4.0,11.0,69,0.00,,,0.01,37,weatherlink.com 1.10,2013-01-11 21:10:00,
2013-01-11 15:25:00,57.8,47.0,29.57,SSE,163,2.0,11.0,68,0.00,,,0.01,54,weatherlink.com 1.10,2013-01-11 21:25:00,
2013-01-11 15:40:00,57.6,47.0,29.56,NW,322,3.0,7.0,69,0.00,,,0.01,69,weatherlink.com 1.10,2013-01-11 21:40:00,
2013-01-11 15:55:00,57.7,48.0,29.57,SE,137,2.0,10.0,69,0.00,,,0.01,30,weatherlink.com 1.10,2013-01-11 21:55:00,
2013-01-11 16:10:00,57.6,47.0,29.57,SSE,168,6.0,13.0,69,0.00,,,0.01,35,weatherlink.com 1.10,2013-01-11 22:10:00,
2013-01-11 16:25:00,57.5,47.0,29.56,SSE,165,12.0,12.0,69,0.00,,,0.01,26,weatherlink.com 1.10,2013-01-11 22:25:00,
2013-01-11 16:40:00,57.4,47.0,29.56,SW,229,3.0,13.0,69,0.00,,,0.01,16,weatherlink.com 1.10,2013-01-11 22:40:00,
2013-01-11 16:55:00,57.4,47.0,29.56,South,169,3.0,13.0,69,0.00,,,0.01,16,weatherlink.com 1.10,2013-01-11 22:55:00,
2013-01-11 17:10:00,57.5,47.0,29.57,West,261,5.0,11.0,69,0.00,,,0.01,0,weatherlink.com 1.10,2013-01-11 23:10:00,
2013-01-11 17:25:00,57.7,47.0,29.57,ESE,119,4.0,12.0,68,0.00,,,0.01,0,weatherlink.com 1.10,2013-01-11 23:25:00,
2013-01-11 17:40:00,57.8,47.0,29.58,SW,222,3.0,15.0,67,0.00,,,0.01,0,weatherlink.com 1.10,2013-01-11 23:40:00,
2013-01-11 17:55:00,57.9,47.0,29.58,SSW,201,2.0,11.0,67,0.00,,,0.01,0,weatherlink.com 1.10,2013-01-11 23:55:00,
2013-01-11 18:10:00,57.8,47.0,29.58,SSE,165,4.0,9.0,67,0.00,,,0.01,0,weatherlink.com 1.10,2013-01-12 00:10:00,
2013-01-11 18:25:00,57.7,47.0,29.59,SSW,211,5.0,12.0,68,0.00,,,0.01,0,weatherlink.com 1.10,2013-01-12 00:25:00,
2013-01-11 18:40:00,57.8,47.0,29.59,South,183,9.0,10.0,68,0.00,,,0.01,0,weatherlink.com 1.10,2013-01-12 00:40:00,
2013-01-11 18:55:00,57.9,47.0,29.59,SE,142,7.0,11.0,68,0.00,,,0.01,0,weatherlink.com 1.10,2013-01-12 00:55:00,
2013-01-11 19:10:00,58.0,47.0,29.59,SSW,200,3.0,16.0,68,0.00,,,0.01,0,weatherlink.com 1.10,2013-01-12 01:10:00,
2013-01-11 19:25:00,57.7,47.0,29.59,SSW,197,6.0,14.0,68,0.00,,,0.01,0,weatherlink.com 1.10,2013-01-12 01:25:00,
2013-01-11 19:40:00,57.5,47.0,29.59,SW,217,4.0,13.0,69,0.00,,,0.01,0,weatherlink.com 1.10,2013-01-12 01:40:00,
2013-01-11 19:55:00,57.6,47.0,29.59,South,184,2.0,10.0,69,0.00,,,0.01,0,weatherlink.com 1.10,2013-01-12 01:55:00,
2013-01-11 20:10:00,57.8,48.0,29.59,North,5,4.0,11.0,69,0.00,,,0.01,0,weatherlink.com 1.10,2013-01-12 02:10:00,
2013-01-11 20:25:00,58.1,48.0,29.60,WSW,240,3.0,12.0,68,0.00,,,0.01,0,weatherlink.com 1.10,2013-01-12 02:25:00,
2013-01-11 20:40:00,58.8,48.0,29.60,WSW,254,4.0,12.0,67,0.00,,,0.01,0,weatherlink.com 1.10,2013-01-12 02:40:00,
2013-01-11 20:55:00,59.8,47.0,29.61,SSE,157,3.0,15.0,64,0.00,,,0.01,0,weatherlink.com 1.10,2013-01-12 02:55:00,
2013-01-11 21:10:00,59.9,48.0,29.62,West,262,6.0,13.0,64,0.00,,,0.01,0,weatherlink.com 1.10,2013-01-12 03:10:00,
2013-01-11 21:25:00,59.3,48.0,29.62,SSW,196,7.0,14.0,66,0.00,,,0.01,0,weatherlink.com 1.10,2013-01-12 03:25:00,
2013-01-11 21:40:00,58.9,48.0,29.64,SSE,155,12.0,12.0,67,0.00,,,0.01,0,weatherlink.com 1.10,2013-01-12 03:40:00,
2013-01-11 21:55:00,58.4,48.0,29.64,WSW,241,6.0,12.0,68,0.00,,,0.01,0,weatherlink.com 1.10,2013-01-12 03:55:00,
2013-01-11 22:10:00,57.9,48.0,29.65,SSW,198,4.0,13.0,69,0.00,,,0.01,0,weatherlink.com 1.10,2013-01-12 04:10:00,
2013-01-11 22:25:00,57.4,48.0,29.65,South,178,5.0,9.0,70,0.00,,,0.01,0,weatherlink.com 1.10,2013-01-12 04:25:00,
2013-01-11 22:40:00,57.1,47.0,29.66,South,189,7.0,10.0,70,0.00,,,0.01,0,weatherlink.com 1.10,2013-01-12 04:40:00,
2013-01-11 22:55:00,57.0,46.0,29.67,SSW,208,5.0,9.0,67,0.00,,,0.01,0,weatherlink.com 1.10,2013-01-12 04:55:00,
2013-01-11 23:10:00,56.6,46.0,29.68,WSW,248,2.0,9.0,68,0.00,,,0.01,0,weatherlink.com 1.10,2013-01-12 05:10:00,
2013-01-11 23:25:00,56.2,40.0,29.69,SW,235,0.0,12.0,56,0.00,,,0.01,0,weatherlink.com 1.10,2013-01-12 05:25:00,
2013-01-11 23:40:00,55.5,31.0,29.71,NW,322,2.0,16.0,39,0.00,,,0.01,0,weatherlink.com 1.10,2013-01-12 05:40:00,
2013-01-11 23:55:00,54.0,27.0,29.73,South,182,2.0,13.0,36,0.00,,,0.01,0,weatherlink.com 1.10,2013-01-12 05:55:00,